Regional Weather Roundup
Issued by NWS

Home | Current Version | Previous Version | Graphics & Text | Print | Product List | Glossary On
Versions: 1 2 3 4 5 6 7 8 9 10 11 12 13 14 15 16 17 18 19 20 21 22 23 24 25 26 27 28 29 30 31 32 33 34 35 36 37 38 39 40 41 42 43 44 45 46 47 48 49 50
000
ASUS43 KIND 270859
RWRIN

WEATHER ROUNDUP FOR INDIANA
NATIONAL WEATHER SERVICE INDIANAPOLIS IN
400 AM EST THU NOV 27 2014

NOTE: "FAIR" INDICATES FEW OR NO CLOUDS BELOW 12,000 FEET WITH NO
SIGNIFICANT WEATHER AND/OR OBSTRUCTIONS TO VISIBILITY.

* - STATION DOES NOT REPORT WEATHER SUCH AS PRECIPITATION OR FOG.

+ - STATION NOT QUALITY CONTROLLED BY THE NATIONAL WEATHER SERVICE.
    USE DATA WITH CAUTION...ESPECIALLY DEWPOINT AND RELATIVE
    HUMIDITY OBSERVATIONS.

INZ001>003-010>013-019-020-271000-
NORTHWEST INDIANA

CITY           SKY/WX    TMP DP  RH WIND       PRES   REMARKS
VALPARAISO     LGT SNOW  28  25  88 W13       30.19R FOG     WCI  17

$$

LMZ046-743>745-271000-
SOUTHERN LAKE MICHIGAN

STATION/POSITION TIME  TEMP WIND        PRES
                       AIR  DIR/SP/G
                 (UTC) (F)  (DEG/KT/KT) (MB)
MICHIGAN CITY    0800   29  170/  6/  8   N/A

$$

INZ004-005-014>016-021>024-271000-
NORTH CENTRAL INDIANA

CITY           SKY/WX    TMP DP  RH WIND       PRES   REMARKS
GOSHEN         CLOUDY    27  21  78 NW7       30.15R WCI  19
PERU/GRISSOM   CLOUDY    26  24  91 NW6       30.16R WCI  19
SOUTH BEND     LGT SNOW  28  23  81 W3        30.17S

$$

INZ006>009-017-018-025>027-271000-
NORTHEAST INDIANA

CITY           SKY/WX    TMP DP  RH WIND       PRES   REMARKS
ANGOLA *+      CLOUDY    27  12  54 CALM      30.12S
FORT WAYNE     CLOUDY    29  23  78 NW10      30.14S WCI  20

$$

INZ028-029-035-036-043>045-051>053-271000-
WEST CENTRAL INDIANA

CITY           SKY/WX    TMP DP  RH WIND       PRES   REMARKS
GREENCASTLE +  CLOUDY    28  21  74 N9        30.19R WCI  20
LAFAYETTE      MOCLDY    23  19  85 NW8       30.21R WCI  14
TERRE HAUTE    CLOUDY    28  22  78 N8        30.21R WCI  20

$$

INZ030>032-037>040-046>048-054>057-064-065-271000-
CENTRAL INDIANA

CITY           SKY/WX    TMP DP  RH WIND       PRES   REMARKS
INDIANAPOLIS   CLOUDY    28  19  69 N10       30.16R WCI  19
-EAGLE CREEK   CLOUDY    28  19  69 N12       30.16R WCI  18
KOKOMO *+      MOCLDY    27  19  74 NW8       30.16R WCI  18
MT COMFORT *+  MOCLDY    28  16  59 N8        30.16R WCI  20
SHELBYVILLE    MOCLDY    29  21  72 NW10      30.14R WCI  20

$$

INZ033-034-041-042-049-050-058-059-271000-
EAST CENTRAL INDIANA

CITY           SKY/WX    TMP DP  RH WIND       PRES   REMARKS
MUNCIE         CLOUDY    28  22  78 NW10      30.13R WCI  19

$$

INZ060-061-067>069-081>083-085>088-271000-
SOUTHWEST INDIANA

CITY           SKY/WX    TMP DP  RH WIND       PRES   REMARKS
EVANSVILLE     CLOUDY    33  29  85 N9        30.22R FOG     WCI  25
HUNTINGBURG *+ PTCLDY    30  27  86 N9        30.19R WCI  22

$$

INZ062-063-066-070>080-084-089>092-271000-
SOUTH CENTRAL AND SOUTHEAST INDIANA

CITY           SKY/WX    TMP DP  RH WIND       PRES   REMARKS
BLOOMINGTON    CLOUDY    28  23  81 N7        30.17R WCI  21
SEYMOUR +      CLOUDY    32  25  74 N9        30.16R WCI  24

$$



USA.gov is the U.S. government's official web portal to all federal, state and local government web resources and services.